Total_Precipitation_Accumulation
1.46 1.64 1.61 1.45 1.41 1.49 1.42 1.40 1.52 1.57 1.57 1.60 1.59 1.55 1.51 1.56 1.73 1.87 1.85 1.93 2.00 2.03 2.03 2.01 1.95 1.97 2.03 1.92 1.98 2.07 2.21 2.38 2.20 1.95 1.81 1.73 1.68 1.59 1.46 1.21 1.05 0.95 0.83
1.75 1.97 1.96 1.66 1.49 1.40 1.23 1.20 1.34 1.50 1.54 1.55 1.54 1.50 1.45 1.54 1.76 1.88 1.94 2.13 2.20 2.12 2.04 1.99 1.88 1.95 2.03 1.97 2.00 1.96 2.02 2.27 2.23 2.10 2.03 2.04 1.95 1.76 1.65 1.46 1.16 1.03 1.00
1.55 1.80 1.76 1.51 1.34 1.28 1.23 1.23 1.36 1.47 1.49 1.49 1.52 1.57 1.68 1.79 1.95 2.04 2.10 2.22 2.20 2.11 2.11 2.03 1.90 1.93 1.91 1.98 2.03 2.01 1.96 2.01 2.15 2.11 2.05 2.14 2.07 1.86 1.73 1.56 1.41 1.46 1.29
1.11 1.38 1.39 1.27 1.20 1.19 1.23 1.24 1.24 1.26 1.32 1.38 1.57 1.81 1.97 2.07 2.13 2.18 2.17 2.15 2.11 1.98 1.88 1.78 1.77 1.85 1.92 1.93 1.85 1.85 1.87 1.94 2.00 2.02 2.03 2.13 2.16 2.09 1.93 1.78 1.74 1.71 1.55
1.02 1.22 1.21 1.17 1.15 1.11 1.09 1.17 1.23 1.30 1.35 1.53 1.71 1.83 1.85 1.88 1.94 2.06 2.07 2.03 1.97 1.84 1.70 1.49 1.44 1.64 1.76 1.77 1.63 1.71 1.77 1.81 1.84 1.91 1.97 2.08 2.14 2.26 2.08 1.84 1.79 1.86 1.77
0.90 1.10 1.12 1.08 1.05 1.00 1.03 1.14 1.30 1.40 1.53 1.68 1.72 1.70 1.64 1.40 1.47 1.59 1.65 1.69 1.69 1.64 1.50 1.41 1.38 1.41 1.37 1.35 1.32 1.33 1.41 1.52 1.69 1.92 2.02 2.04 2.03 2.13 2.22 2.13 2.06 2.02 1.98
0.89 1.05 1.14 1.12 1.13 1.10 1.09 1.26 1.44 1.59 1.69 1.73 1.73 1.64 1.55 1.52 1.42 1.29 1.27 1.33 1.44 1.46 1.47 1.52 1.31 1.17 1.27 1.25 1.30 1.25 1.20 1.24 1.36 1.61 1.82 1.86 1.96 1.99 2.24 2.27 2.30 2.37 2.34
0.93 1.12 1.20 1.16 1.20 1.29 1.32 1.41 1.62 1.81 1.88 1.85 1.83 1.76 1.74 1.68 1.56 1.33 1.23 1.20 1.38 1.44 1.45 1.48 1.47 1.40 1.38 1.44 1.46 1.38 1.24 1.20 1.18 1.17 1.37 1.63 1.85 2.08 2.14 2.20 2.30 2.37 2.36
0.94 1.09 1.20 1.27 1.37 1.43 1.48 1.65 1.85 2.00 1.98 1.93 1.95 1.92 1.89 1.89 1.71 1.39 1.25 1.26 1.45 1.50 1.50 1.48 1.46 1.42 1.44 1.30 1.27 1.29 1.28 1.25 1.09 1.09 1.17 1.37 1.53 1.61 1.82 2.04 2.21 2.16 2.07
1.24 1.30 1.48 1.69 1.87 1.95 2.00 2.06 2.09 2.15 2.06 2.02 1.99 1.96 1.91 1.91 1.83 1.39 1.19 1.22 1.43 1.50 1.57 1.55 1.43 1.31 1.28 1.15 1.14 1.27 1.26 1.23 1.23 1.17 1.08 1.10 1.17 1.29 1.36 1.41 1.68 1.86 1.77
1.49 1.57 1.79 2.12 2.30 2.27 2.26 2.21 2.17 2.18 2.18 2.15 2.08 2.06 2.02 1.96 1.89 1.49 1.30 1.34 1.51 1.60 1.60 1.56 1.50 1.36 1.17 1.11 1.05 1.09 1.13 1.12 1.18 1.21 1.17 1.12 1.18 1.28 1.23 1.18 1.31 1.49 1.54
1.68 1.88 2.11 2.37 2.32 2.22 2.37 2.31 2.30 2.36 2.33 2.24 2.18 2.11 2.11 2.06 1.90 1.61 1.38 1.43 1.58 1.70 1.77 1.73 1.63 1.41 1.17 1.06 0.98 0.95 0.90 0.84 0.89 1.01 1.04 1.00 1.04 1.15 1.22 1.19 1.21 1.26 1.31
1.86 2.03 2.14 2.25 2.43 2.57 2.62 2.55 2.47 2.43 2.38 2.22 2.12 2.01 1.94 2.00 2.01 1.59 1.33 1.39 1.48 1.53 1.70 1.73 1.46 1.23 1.08 0.93 0.89 0.87 0.78 0.72 0.83 0.90 0.90 0.89 0.88 0.98 1.17 1.29 1.31 1.31 1.26
1.73 1.75 1.87 2.06 2.22 2.31 2.53 2.60 2.51 2.36 2.30 2.25 2.14 2.00 1.93 1.96 1.96 1.63 1.32 1.30 1.37 1.37 1.45 1.52 1.39 1.21 1.07 0.96 0.90 0.85 0.80 0.81 0.89 0.91 0.92 0.95 0.95 1.01 1.09 1.17 1.26 1.29 1.26
1.66 1.62 1.65 1.69 1.81 1.90 2.02 2.14 2.15 2.17 2.00 1.89 1.78 1.72 1.72 1.77 1.74 1.49 1.31 1.31 1.43 1.49 1.45 1.47 1.48 1.35 1.21 1.10 1.07 1.10 1.10 1.05 0.98 0.97 1.00 1.01 0.99 0.98 1.03 1.10 1.17 1.20 1.14
1.59 1.52 1.54 1.55 1.63 1.70 1.75 1.71 1.57 1.51 1.36 1.22 1.18 1.13 1.15 1.21 1.31 1.16 1.04 1.14 1.29 1.35 1.28 1.31 1.42 1.41 1.33 1.25 1.19 1.19 1.17 1.11 1.04 1.04 1.02 1.01 0.98 0.95 0.97 1.02 1.06 1.08 1.05
1.61 1.47 1.38 1.34 1.39 1.43 1.52 1.66 1.72 1.51 1.29 1.11 0.99 0.86 0.84 0.94 1.02 1.03 0.98 1.01 1.09 1.12 1.09 1.15 1.25 1.30 1.26 1.22 1.17 1.14 1.09 1.10 1.11 1.06 1.03 1.03 1.01 0.96 0.94 0.97 0.99 1.05 1.03
1.51 1.40 1.30 1.28 1.33 1.37 1.44 1.56 1.68 1.68 1.43 1.10 0.96 0.83 0.72 0.70 0.73 0.77 0.78 0.82 0.91 0.94 0.95 1.02 1.08 1.12 1.13 1.14 1.13 1.12 1.08 1.09 1.08 1.06 1.02 1.01 1.01 0.97 0.97 0.98 0.95 0.97 1.02
1.33 1.25 1.18 1.22 1.25 1.23 1.29 1.36 1.43 1.47 1.37 1.20 1.00 0.81 0.66 0.56 0.57 0.61 0.61 0.68 0.83 0.88 0.88 0.92 0.93 0.94 0.98 1.02 1.02 1.06 1.06 1.02 1.02 1.05 1.02 0.98 1.01 1.02 1.02 1.01 1.00 1.01 1.02
1.22 1.05 0.98 1.02 1.07 1.07 1.13 1.18 1.21 1.26 1.24 1.17 1.05 0.80 0.60 0.54 0.62 0.68 0.68 0.77 0.87 0.87 0.83 0.86 0.82 0.81 0.86 0.93 0.98 1.03 1.03 1.04 1.07 1.04 1.01 1.00 0.99 1.00 0.97 0.98 1.01 1.03 1.03
1.15 0.98 0.75 0.70 0.79 0.85 0.95 1.04 1.07 1.08 1.11 1.09 0.94 0.67 0.48 0.44 0.57 0.71 0.81 0.85 0.84 0.84 0.78 0.74 0.70 0.72 0.78 0.83 0.88 0.91 0.96 1.03 1.02 1.01 1.05 1.02 0.98 0.98 0.96 0.97 0.96 0.98 1.00
1.03 0.93 0.78 0.69 0.71 0.76 0.84 0.94 0.96 0.93 0.92 0.90 0.80 0.60 0.44 0.41 0.53 0.66 0.73 0.72 0.71 0.73 0.70 0.66 0.65 0.69 0.72 0.75 0.80 0.86 0.91 0.94 0.95 0.98 1.00 1.00 0.99 0.97 0.97 1.01 1.01 1.00 1.01
0.95 0.86 0.76 0.70 0.72 0.71 0.75 0.86 0.87 0.82 0.78 0.73 0.66 0.58 0.49 0.50 0.57 0.65 0.67 0.66 0.66 0.64 0.63 0.62 0.60 0.59 0.65 0.68 0.70 0.76 0.83 0.83 0.84 0.87 0.93 0.98 0.98 0.99 1.03 1.04 1.00 0.96 0.97
0.85 0.81 0.70 0.66 0.68 0.73 0.73 0.75 0.72 0.67 0.64 0.60 0.56 0.55 0.54 0.57 0.60 0.60 0.62 0.62 0.61 0.57 0.54 0.55 0.56 0.56 0.60 0.64 0.64 0.64 0.67 0.69 0.70 0.74 0.79 0.85 0.88 0.95 1.02 1.04 1.00 0.97 1.03
0.82 0.83 0.73 0.63 0.62 0.66 0.67 0.68 0.65 0.63 0.58 0.52 0.51 0.51 0.53 0.55 0.56 0.59 0.59 0.56 0.52 0.51 0.47 0.48 0.54 0.55 0.51 0.51 0.52 0.52 0.56 0.55 0.54 0.61 0.70 0.79 0.81 0.88 1.00 1.04 1.04 1.03 1.10
0.75 0.78 0.72 0.63 0.59 0.60 0.61 0.68 0.69 0.63 0.57 0.49 0.48 0.50 0.48 0.45 0.45 0.47 0.46 0.44 0.43 0.43 0.44 0.45 0.48 0.49 0.47 0.45 0.44 0.45 0.43 0.40 0.42 0.51 0.56 0.64 0.75 0.82 0.90 0.96 0.95 1.03 1.10